Cannes, France

11:12 PM CET on February 09, 2016 (GMT +0100)
Mandelieu

Weather History for LFMD - September, 2013

Change the Weather History Date:

Wednesday, September 18, 2013

  Actual Average Record
Temperature  
Mean Temperature 68 °F -  
Max Temperature 84 °F 69 °F 86 °F (2007)
Min Temperature 51 °F 57 °F 51 °F (2013)
Cooling Degree Days 2    
Growing Degree Days 18 (Base 50)    
Moisture  
Dew Point 48 °F    
Average Humidity 50    
Maximum Humidity 71    
Minimum Humidity 35    
Precipitation  
Precipitation 0.00 in - - ()
Sea Level Pressure  
Sea Level Pressure 29.66 in    
Wind  
Wind Speed 6 mph ()    
Max Wind Speed 18 mph    
Max Gust Speed 30 mph    
Visibility 6.2 miles    
Events      
Averages and records for this station are not official NWS values.
T = Trace of Precipitation, MM = Missing Value Source: Averaged Metar Reports

Daily Weather History Graph

Daily Weather History Graph

Search for Another Location

Airport or City:

Trip Planner

Search our weather history database for the weather conditions in past years. The results will help you decide how hot, cold, wet, or windy it might be!

Date:

Astronomy

Sep. 18, 2013 Rise Set
Actual Time 7:14 AM CEST 7:36 PM CEST
Civil Twilight 6:46 AM CEST 8:05 PM CEST
Nautical Twilight 6:12 AM CEST 8:39 PM CEST
Astronomical Twilight 5:37 AM CEST 9:13 PM CEST
Moon 6:50 PM CEST (9/18) 5:58 AM CEST (9/18)
Length of Visible Light 13h 19m
Length of Day
12h 21m
Waxing Gibbous, 99% of the Moon is Illuminated
Sep 18
Waxing Gibbous
Sep 19
Full
Sep 27
Last Quarter
Oct 5
New
Oct 12
First Quarter

Hourly Weather History & Observations

Time (CEST) Temp. Heat Index Dew Point Humidity Pressure Visibility Wind Dir Wind Speed Gust Speed Precip Events Conditions
12:00 AM 57.2 °F - 41.0 °F 55% 29.74 in 6.2 mi Variable 2.3 mph - N/A   Unknown
12:30 AM 57.2 °F - 41.0 °F 55% 29.74 in 6.2 mi Variable 2.3 mph - N/A   Unknown
1:00 AM 57.2 °F - 41.0 °F 55% 29.74 in 6.2 mi North 4.6 mph - N/A   Unknown
1:30 AM 57.2 °F - 39.2 °F 51% 29.74 in 6.2 mi Variable 2.3 mph - N/A   Unknown
2:00 AM 55.4 °F - 39.2 °F 54% 29.74 in 6.2 mi Variable 2.3 mph - N/A   Unknown
2:30 AM 55.4 °F - 39.2 °F 54% 29.71 in 6.2 mi Variable 2.3 mph - N/A   Unknown
3:00 AM 53.6 °F - 39.2 °F 58% 29.71 in 6.2 mi Variable 2.3 mph - N/A   Unknown
3:30 AM 53.6 °F - 39.2 °F 58% 29.71 in 6.2 mi Variable 3.5 mph - N/A   Unknown
4:00 AM 53.6 °F - 39.2 °F 58% 29.71 in 6.2 mi Variable 3.5 mph - N/A   Unknown
4:30 AM 53.6 °F - 39.2 °F 58% 29.68 in 6.2 mi Variable 2.3 mph - N/A   Unknown
5:00 AM 53.6 °F - 41.0 °F 62% 29.68 in 6.2 mi NNE 4.6 mph - N/A   Unknown
5:30 AM 55.4 °F - 41.0 °F 58% 29.65 in 6.2 mi Variable 3.5 mph - N/A   Unknown
6:00 AM 53.6 °F - 41.0 °F 62% 29.65 in 6.2 mi Variable 3.5 mph - N/A   Unknown
6:30 AM 53.6 °F - 41.0 °F 62% 29.65 in 6.2 mi North 3.5 mph - N/A   Unknown
7:00 AM 51.8 °F - 42.8 °F 71% 29.65 in 6.2 mi North 4.6 mph - N/A   Unknown
7:30 AM 51.8 °F - 42.8 °F 71% 29.65 in 6.2 mi North 4.6 mph - N/A   Unknown
8:00 AM 53.6 °F - 42.8 °F 67% 29.65 in 6.2 mi NNE 5.8 mph - N/A   Unknown
8:30 AM 57.2 °F - 44.6 °F 63% 29.68 in 6.2 mi NNE 5.8 mph - N/A   Unknown
9:00 AM 62.6 °F - 46.4 °F 55% 29.68 in 6.2 mi NNE 3.5 mph - N/A   Unknown
9:30 AM 64.4 °F - 48.2 °F 56% 29.68 in 6.2 mi Variable 3.5 mph - N/A   Unknown
10:00 AM 69.8 °F - 46.4 °F 43% 29.68 in 6.2 mi Variable 1.2 mph - N/A   Unknown
10:30 AM 71.6 °F - 44.6 °F 38% 29.68 in 6.2 mi SE 4.6 mph - N/A   Unknown
11:00 AM 73.4 °F - 46.4 °F 38% 29.68 in 6.2 mi Variable 3.5 mph - N/A   Unknown
11:30 AM 73.4 °F - 50.0 °F 44% 29.68 in 6.2 mi South 5.8 mph - N/A   Unknown
12:00 PM 73.4 °F - 50.0 °F 44% 29.68 in 6.2 mi South 6.9 mph - N/A   Unknown
12:30 PM 73.4 °F - 53.6 °F 50% 29.65 in 6.2 mi South 9.2 mph - N/A   Unknown
1:00 PM 75.2 °F - 53.6 °F 47% 29.65 in 6.2 mi SSE 8.1 mph - N/A   Unknown
1:30 PM 75.2 °F - 55.4 °F 50% 29.65 in 6.2 mi SE 8.1 mph - N/A   Unknown
2:00 PM 77.0 °F - 55.4 °F 47% 29.62 in 6.2 mi SSE 8.1 mph - N/A   Unknown
2:30 PM 77.0 °F - 57.2 °F 50% 29.62 in 6.2 mi SE 9.2 mph - N/A   Unknown
3:00 PM 80.6 °F 80.8 °F 57.2 °F 45% 29.62 in 6.2 mi Variable 11.5 mph - N/A   Unknown
3:30 PM 84.2 °F 82.8 °F 53.6 °F 35% 29.62 in 6.2 mi WSW 15.0 mph 28.8 mph N/A   Unknown
4:00 PM 84.2 °F 82.8 °F 53.6 °F 35% 29.62 in 6.2 mi West 13.8 mph - N/A   Unknown
4:30 PM 84.2 °F 82.8 °F 53.6 °F 35% 29.62 in 6.2 mi West 16.1 mph 29.9 mph N/A   Unknown
5:00 PM 82.4 °F 81.4 °F 53.6 °F 37% 29.62 in 6.2 mi West 18.4 mph - N/A   Unknown
5:30 PM 82.4 °F 81.4 °F 53.6 °F 37% 29.62 in 6.2 mi West 13.8 mph 25.3 mph N/A   Unknown
6:00 PM 80.6 °F 80.3 °F 53.6 °F 39% 29.62 in 6.2 mi West 17.3 mph 29.9 mph N/A   Unknown
6:30 PM 78.8 °F - 53.6 °F 42% 29.62 in 6.2 mi West 15.0 mph - N/A   Unknown
7:00 PM 78.8 °F - 53.6 °F 42% 29.62 in 6.2 mi West 10.4 mph - N/A   Unknown
7:30 PM 78.8 °F - 51.8 °F 39% 29.62 in 6.2 mi West 10.4 mph - N/A   Unknown
8:00 PM 78.8 °F - 51.8 °F 39% 29.62 in 6.2 mi West 6.9 mph - N/A   Unknown
8:30 PM 77.0 °F - 51.8 °F 41% 29.62 in 6.2 mi West 11.5 mph - N/A   Unknown
9:00 PM 77.0 °F - 53.6 °F 44% 29.62 in 6.2 mi West 13.8 mph - N/A   Unknown
9:30 PM 75.2 °F - 55.4 °F 50% 29.65 in 6.2 mi WSW 11.5 mph - N/A   Unknown
10:00 PM 75.2 °F - 55.4 °F 50% 29.65 in 6.2 mi West 15.0 mph - N/A   Unknown
10:30 PM 73.4 °F - 55.4 °F 53% 29.65 in 6.2 mi WSW 16.1 mph - N/A   Unknown
11:00 PM 71.6 °F - 55.4 °F 57% 29.65 in 6.2 mi West 17.3 mph - N/A   Unknown
11:30 PM 71.6 °F - 55.4 °F 57% 29.62 in 6.2 mi West 15.0 mph - N/A   Unknown